Location: Mauna Kea VIS
(19.7591°N, 155.4561°W)
Time: 14:24:05
(UTC-10:00)

Hubble Space Telescope - Pass Details

Date: 20 December 2025
Orbit: 479 x 481 km, 28.5° (Epoch: 16 January)

Event Time Altitude Azimuth Distance (km) Brightness Sun altitude
Rises 18:09:53 0° 289° (WNW) 2,522 5.0 -5.6°
Reaches altitude 10° 18:12:06 10° 287° (WNW) 1,643 4.1 -6.0°
Maximum altitude 18:15:51 68° 204° (SSW) 516 0.9 -6.9°
Drops below altitude 10° 18:19:36 10° 121° (ESE) 1,640 2.9 -7.7°
Sets 18:21:48 0° 119° (ESE) 2,517 3.8 -8.1°
Enters shadow 18:21:57 -1° 118° (ESE) 2,575 3.9 -8.2°
